1362268830294,142.288
1362268890294,142.033
1362268950294,142.145
1362269010294,142.165
1362269070294,142.194
1362269130294,142.198
1362269190294,142.497
1362269250294,142.326
1362269310294,142.109
1362269370294,142.127
1362269430294,142.135
1362269490294,142.105
1362269550294,142.574
1362269610294,142.520
1362269670294,142.472
1362269730294,142.137
1362269790294,142.488
1362269850294,142.618
1362269910294,142.688
1362269970294,142.650
1362270030294,142.485
1362270090294,142.928
1362270150294,142.802
1362270210294,142.606
1362270270294,143.024
1362270330294,143.288
1362270390294,142.945
1362270450294,143.030
1362270510294,142.899
1362270570294,142.974
1362270630294,142.970
1362270690294,142.709
1362270750294,143.001
1362270810294,142.882
1362270870294,143.001
1362270930294,143.150
1362270990294,143.261
1362271050294,142.901
1362271110294,143.029
1362271170294,143.150
1362271230294,143.306
1362271290294,142.945
1362271350294,143.078
1362271410294,142.822
1362271470294,142.888
1362271530294,142.956
1362271590294,142.993
1362271650294,143.212
1362271710294,143.264
1362271770294,143.110
1362271830294,142.974
1362271890294,143.089
1362271950294,142.920
1362272010294,143.350
1362272070294,143.356
1362272130294,143.149
1362272190294,143.087
1362272250294,143.205
1362272310294,142.849
1362272370294,142.966
1362272430307,143.303
1362272490307,142.943
1362272550306,143.274
1362272610306,143.189
1362272670306,142.885
1362272730306,143.224
1362272790306,143.235
1362272850306,143.167
1362272910306,143.391
1362272970306,143.438
1362273030306,143.139
1362273090306,143.414
1362273150306,143.049
1362273210306,143.392
1362273270306,143.113
1362273330306,143.416
1362273390306,143.452
1362273450306,143.166
1362273510306,143.406
1362273570306,142.982
1362273630306,143.346
1362273690306,143.108
1362273750307,143.063
1362273810307,143.272
1362273870306,143.106
1362273930306,143.224
1362273990306,143.179
1362274050306,143.337
1362274110306,143.414
1362274170306,143.281
1362274230306,143.539
1362274290306,143.536
1362274350306,143.302
1362274410306,143.422
1362274470306,143.078
1362274530306,143.552
1362274590306,143.397
1362274650306,143.221
1362274710306,143.279
1362274770306,143.229
1362274830306,143.293
1362274890306,143.465
1362274950306,143.538
1362275010306,143.467
1362275070306,143.777
1362275130307,143.707
1362275190307,143.439
1362275250306,143.274
1362275310306,143.472
1362275370306,143.393
1362275430306,143.214
1362275490306,143.521
1362275550306,143.499
1362275610306,143.392
1362275670306,143.103
1362275730306,143.246
1362275790306,143.784
1362275850306,143.759
1362275910306,143.501
1362275970306,143.592
1362276030319,143.657
1362276090319,143.651
1362276150319,143.763
1362276210319,143.601
1362276270319,143.674
1362276330319,143.439
1362276390319,143.693
1362276450319,143.503
1362276510319,143.327
1362276570319,143.747
1362276630319,143.709
1362276690319,143.693
1362276750319,143.721
1362276810319,143.958
1362276870319,143.525
1362276930319,143.675
1362276990319,143.560
1362277050319,143.383
1362277110319,143.844
1362277170319,143.856
1362277230319,143.861
1362277290319,143.529
1362277350319,143.556
1362277410319,144.108
1362277470319,143.520
1362277530319,143.790
1362277590319,143.508
1362277650319,143.397
1362277710319,143.758
1362277770319,143.533
1362277830319,143.413
1362277890319,143.537
1362277950319,143.512
1362278010319,143.863
1362278070319,143.474
1362278130319,143.546
1362278190319,143.635
1362278250319,143.632
1362278310319,143.614
1362278370319,143.618
1362278430319,143.352
1362278490319,143.376
1362278550319,143.689
1362278610319,143.426
1362278670319,143.667
1362278730319,143.379
1362278790319,143.214
1362278850319,143.399
1362278910319,143.749
1362278970319,143.706
1362279030319,143.693
1362279090319,143.441
1362279150319,143.404
1362279210319,143.380
1362279270319,143.480
1362279330319,143.046
1362279390319,143.400
1362279450319,143.542
1362279510319,143.619
1362279570319,143.244
1362279630332,143.330
1362279690332,143.565
1362279750332,143.234
1362279810332,143.442
1362279870332,143.739
1362279930332,143.243
1362279990332,143.580
1362280050332,143.404
1362280110332,143.414
1362280170332,143.311
1362280230332,143.671
1362280290332,143.347
1362280350332,143.860
1362280410332,143.488
1362280470332,143.603
1362280530332,143.603
1362280590332,143.601
1362280650332,143.524
1362280710332,143.446
1362280770332,143.585
1362280830332,143.457
1362280890332,143.570
1362280950332,143.526
1362281010332,143.432
1362281070332,143.681
1362281130332,143.498
1362281190332,143.520
1362281250332,143.470
1362281310332,143.733
1362281370332,143.796
1362281430332,143.661
1362281490332,143.549
1362281550332,143.569
1362281610332,143.637
1362281670332,143.654
1362281730332,143.617
1362281790332,143.783
1362281850332,143.760
1362281910332,143.685
1362281970332,143.661
1362282030332,143.777
1362282090332,143.732
1362282150332,143.562
1362282210332,143.878
1362282270332,143.914
1362282330332,143.987
1362282390332,143.785
1362282450332,143.878
1362282510332,144.014
1362282570332,143.770
1362282630332,143.770
1362282690332,144.192
1362282750332,143.741
1362282810332,143.858
1362282870332,144.083
1362282930332,144.075
1362282990332,144.049
1362283050332,143.931
1362283110332,144.100
1362283170332,144.084
1362283230345,143.938
1362283290345,143.859
1362283350345,144.037
1362283410345,144.031
1362283470345,144.261
1362283530345,143.748
1362283590345,144.196
1362283650345,144.117
1362283710345,144.258
1362283770345,144.431
1362283830345,144.350
1362283890345,144.148
1362283950345,144.062
1362284010345,144.052
1362284070345,143.922
1362284130345,144.146
1362284190345,143.636
1362284250345,144.208
1362284310345,143.965
1362284370345,143.513
1362284430345,143.684
1362284490345,143.866
1362284550345,143.829
1362284610345,143.531
1362284670345,144.074
1362284730345,143.946
1362284790345,143.827
1362284850345,144.080
1362284910345,144.048
1362284970345,144.126
1362285030345,143.937
1362285090345,143.932
1362285150345,143.972
1362285210345,144.198
1362285270345,144.217
1362285330345,144.094
1362285390345,143.934
1362285450345,144.231
1362285510345,144.224
1362285570345,144.128
1362285630345,144.095
1362285690345,144.200
1362285750345,144.240
1362285810345,144.142
1362285870345,143.956
1362285930345,144.007
1362285990345,143.771
1362286050345,143.886
1362286110345,143.802
1362286170345,144.002
1362286230345,144.247
1362286290345,144.096
1362286350345,144.062
1362286410345,144.096
1362286470345,144.043
1362286530345,144.061
1362286590345,144.423
1362286650345,144.135
1362286710345,144.539
1362286770345,144.292
1362286830358,144.377
1362286890358,144.389
1362286950358,144.237
1362287010358,144.586
1362287070358,144.562
1362287130358,144.622
1362287190358,144.448
1362287250358,144.179
1362287310358,144.476
1362287370358,144.294
1362287430358,144.405
1362287490358,144.740
1362287550358,144.458
1362287610357,144.407
1362287670357,144.300
1362287730358,144.464
1362287790358,144.344
1362287850358,144.259
1362287910358,144.424
1362287970358,144.380
1362288030358,144.309
1362288090358,144.362
1362288150358,144.171
1362288210358,144.219
1362288270358,143.854
1362288330358,144.083
1362288390358,143.894
1362288450358,144.005
1362288510358,143.628
1362288570358,144.053
1362288630358,144.063
1362288690358,144.155
1362288750358,143.517
1362288810358,143.736
1362288870358,143.762
1362288930358,144.072
1362288990357,144.043
1362289050357,143.675
1362289110358,143.890
1362289170358,143.566
1362289230358,144.137
1362289290358,143.872
1362289350358,143.897
1362289410358,144.140
1362289470358,143.957
1362289530358,144.091
1362289590358,144.174
1362289650358,143.963
1362289710358,144.036
1362289770358,143.761
1362289830358,144.222
1362289890358,143.929
1362289950358,144.003
1362290010358,143.949
1362290070358,143.805
1362290130358,144.226
1362290190358,143.964
1362290250358,143.912
1362290310357,144.278
1362290370357,143.776
1362290430370,143.946
1362290490370,143.843
1362290550370,144.060
1362290610370,144.235
1362290670370,144.017
1362290730370,144.005
1362290790370,144.092
1362290850370,144.263
1362290910370,144.276
1362290970370,143.976
1362291030370,144.133
1362291090370,143.551
1362291150370,144.063
1362291210370,144.123
1362291270370,144.161
1362291330370,143.961
1362291390370,143.870
1362291450370,143.903
1362291510370,143.899
1362291570370,144.015
1362291630370,143.953
1362291690370,143.992
1362291750370,144.034
1362291810370,143.960
1362291870370,144.106
1362291930370,144.271
1362291990370,143.982
1362292050370,143.809
1362292110370,143.731
1362292170370,143.746
1362292230370,143.836
1362292290370,143.692
1362292350370,144.199
1362292410370,144.012
1362292470370,143.949
1362292530370,143.786
1362292590370,143.889
1362292650370,143.601
1362292710370,144.053
1362292770370,143.582
1362292830370,143.930
1362292890370,143.819
1362292950370,143.755
1362293010370,143.714
1362293070370,143.778
1362293130370,143.789
1362293190370,143.731
1362293250370,143.888
1362293310370,143.833
1362293370370,144.024
1362293430370,144.107
1362293490370,144.148
1362293550370,143.956
1362293610370,143.961
1362293670370,143.924
1362293730370,144.074
1362293790370,143.392
1362304290438,144.571
1362304350438,144.655
1362304410438,144.972
1362304470438,144.867
1362304530438,144.455
1362304590438,144.938
1362304650438,144.992
1362304710438,144.936
1362304770438,145.245
1362304830451,144.782
1362304890451,145.175
1362304950451,145.095
1362305010451,145.044
1362305070451,145.409
1362305130451,144.981
1362305190451,145.366
1362305250451,145.231
1362305310451,145.046
1362305370451,145.505
1362305430451,145.559
1362305490451,145.149
1362305550451,145.507
1362305610451,145.513
1362305670451,145.191
1362305730451,145.285
1362305790451,145.022
1362305850451,145.127
1362305910451,145.052
1362305970451,145.343
1362306030451,145.192
1362306090451,145.254
1362306150451,145.208
1362306210451,145.328
1362306270451,145.253
1362306330451,145.177
1362306390451,145.161
1362306450451,145.327
1362306510451,145.119
1362306570451,145.283
1362306630451,145.284
1362306690451,145.179
1362306750451,145.136
1362306810451,145.456
1362306870451,145.154
1362306930451,145.425
1362306990451,145.305
1362307050451,145.439
1362307110451,145.283
1362307170451,145.421
1362307230451,145.242
1362307290451,145.529
1362307350451,145.185
1362307410451,145.099
1362307470451,145.382
1362307530451,145.388
1362307590451,144.954
1362307650451,145.372
1362307710451,145.326
1362307770451,145.348
1362307830451,145.341
1362307890451,145.278
1362307950451,145.282
1362308010451,145.254
1362308070451,145.577
1362308130451,145.374
1362308190451,145.372
1362308250451,144.929
1362308310451,145.216
1362308370451,145.101
1362308430464,145.322
1362308490464,145.383
1362308550464,145.388
1362308610464,144.881
1362308670464,145.338
1362308730464,145.328
1362308790464,145.250
1362308850464,145.119
1362308910464,145.398
1362308970464,145.191
1362309030464,145.356
1362309090464,145.255
1362309150464,144.950
1362309210464,145.064
1362309270464,145.125
1362309330464,145.015
1362309390464,145.391
1362309450464,144.822
1362309510464,145.157
1362309570464,145.158
1362309630464,145.357
1362309690464,144.840
1362309750464,145.332
1362309810464,145.173
1362309870464,144.918
1362309930464,145.248
1362309990464,144.791
1362310050464,145.235
1362310110464,145.012
1362310170464,145.165
1362310230464,145.049
1362310290464,145.267
1362310350464,144.961
1362310410464,145.176
1362310470464,145.084
1362310530464,145.272
1362310590464,145.145
1362310650464,145.175
1362310710464,145.377
1362310770464,144.980
1362310830464,144.920
1362310890464,145.069
1362310950464,145.099
1362311010464,144.896
1362311070464,145.010
1362311130464,145.156
1362311190464,144.769
1362311250464,145.255
1362311310464,145.310
1362311370464,145.283
1362311430464,144.851
1362311490464,145.033
1362311550464,145.400
1362311610464,145.038
1362311670464,144.957
1362311730464,145.440
1362311790464,145.173
1362311850464,144.870
1362311910464,145.393
1362311970464,145.071
1362312030477,144.851
1362312090477,144.842
1362312150477,144.994
1362312210477,145.028
1362312270477,145.132
1362312330477,144.881
1362312390477,145.337
1362312450477,145.211
1362312510477,145.087
1362312570477,144.836
1362312630477,144.877
1362312690477,145.304
1362312750477,145.122
1362312810477,145.019
1362312870477,144.853
1362312930477,145.282
1362312990477,145.194
1362313050477,145.321
1362313110477,145.119
1362313170477,145.069
1362313230477,145.082
1362313290477,145.224
1362313350477,145.113
1362313410477,145.282
1362313470477,145.312
1362313530477,145.005
1362313590477,145.306
1362313650477,145.211
1362313710477,145.264
1362313770477,145.374
1362313830477,145.271
1362313890477,145.142
1362313950477,145.152
1362314010477,145.197
1362314070477,145.563
1362314130477,145.282
1362314190477,145.238
1362314250477,145.346
1362314310477,145.101
1362314370477,145.273
1362314430477,145.372
1362314490477,145.315
1362314550477,145.381
1362314610477,145.197
1362314670477,145.200
1362314730477,145.079
1362314790477,145.111
1362314850477,145.329
1362314910477,144.821
1362314970477,145.170
1362315030477,145.180
1362315090477,145.142
1362315150477,145.250
1362315210477,145.443
1362315270477,145.246
1362315330477,145.338
1362315390477,145.704
1362315450477,145.224
1362315510477,145.205
1362315570477,145.234
1362315630490,145.387
1362315690490,145.181
1362315750490,145.104
1362315810490,145.180
1362315870490,145.616
1362315930490,145.342
1362315990490,145.497
1362316050490,145.490
1362316110490,145.459
1362316170490,145.412
1362316230490,145.603
1362316290490,145.693
1362316350490,145.643
1362316410490,145.543
1362316470490,145.368
1362316530490,145.780
1362316590490,145.800
1362316650490,145.738
1362316710490,145.551
1362316770490,145.753
1362316830490,145.531
1362316890490,145.506
1362316950490,145.417
1362317010490,145.509
1362318150490,146.050
1362318210490,145.785
1362318270490,145.845
1362318330490,145.971
1362318390490,145.972
1362318450490,146.034
1362318510490,146.026
1362318570490,145.981
1362318630490,145.851
1362318690490,145.785
1362318750490,145.598
1362318810490,146.037
1362318870490,146.164
1362318930490,146.199
1362318990490,145.878
1362319050490,146.132
1362319110490,145.816
1362319170490,146.177
1362319230503,146.095
1362319290503,146.031
1362319350503,145.883
1362319410503,146.074
1362319470503,146.108
1362319530503,146.253
1362319590503,145.925
1362319650503,145.976
1362319710503,146.123
1362319770503,145.845
1362319830503,145.868
1362319890503,145.770
1362319950503,145.925
1362320010503,145.553
1362320070503,146.018
1362320130503,146.062
1362320190503,146.033
1362320250503,146.243
1362320310503,145.925
1362320370503,146.028
1362320430503,146.106
1362320490503,145.900
1362320550503,145.546
1362320610503,146.111
1362320670503,145.950
1362320730503,145.955
1362320790503,145.762
1362320850503,145.902
1362320910503,146.137
1362320970503,146.023
1362321030503,146.156
1362321090503,145.803
1362321150503,145.995
1362321210503,145.765
1362321270503,146.226
1362321330503,145.942
1362321390503,145.822
1362321450503,146.020
1362321510503,145.999
1362321570503,146.082
1362321630503,146.332
1362321690503,146.034
1362321750503,146.062
1362321810503,145.834
1362321870503,146.202
1362321930503,146.404
1362321990503,146.349
1362322050503,146.138
1362322110503,146.260
1362322170503,146.022
1362322230503,146.052
1362322290503,146.144
1362322350503,146.247
1362322410503,146.606
1362322470503,146.210
1362322530503,146.358
1362322590503,146.216
1362322650503,147.678
1362322710503,146.183
1362322770503,146.569
1362322830516,146.448
1362322890516,146.585
1362322950516,146.118
1362323010516,146.286
1362323070516,146.570
1362323130516,146.557
1362323190516,146.708
1362323250516,146.374
1362323310516,146.437
1362323370516,146.709
1362323430516,146.651
1362323490516,146.593
1362323550516,146.595
1362323610516,146.536
1362323670516,146.710
1362323730516,146.828
1362323790516,146.885
1362323850516,146.808
1362323910516,146.611
1362323970516,146.801
1362324030516,146.506
1362324090516,146.640
1362324150516,146.997
1362324210516,146.977
1362324270516,146.671
1362324330516,146.799
1362324390516,146.876
1362324450516,147.202
1362324510516,147.123
1362324570516,146.990
1362324630516,146.889
1362324690516,147.313
1362324750516,147.110
1362324810516,147.199
1362324870516,147.060
1362324930516,147.104
1362324990516,147.204
1362325050516,147.314
1362325110516,146.966
1362325170516,147.085
1362325230516,147.018
1362325290516,147.226
1362325350516,147.196
1362325410516,147.173
1362325470516,147.389
1362325530516,147.331
1362325590516,147.380
1362325650516,147.053
1362325710516,147.458
1362325770516,147.343
1362325830516,147.150
1362325890516,147.430
1362325950516,146.997
1362326010516,147.282
1362326070516,147.342
1362326130516,147.471
1362326190516,147.358
1362326250516,147.120
1362326310516,147.169
1362326370516,147.086
1362326430529,147.240
1362326490529,146.897
1362326550529,147.314
1362326610529,147.084
1362326670529,147.048
1362326730529,147.163
1362326790529,147.475
1362326850529,147.036
1362326910529,147.334
1362326970529,147.239
1362327030529,146.941
1362327090529,146.954
1362327150529,147.626
1362327210529,147.209
1362327270529,147.281
1362327330529,147.271
1362327390529,147.278
1362327450529,146.976
1362327510529,147.450
1362327570529,147.330
1362327630529,147.198
1362327690529,147.765
1362327750529,147.281
1362327810529,147.378
1362327870529,147.464
1362327930529,147.232
1362327990529,147.573
1362328050529,147.405
1362328110529,147.444
1362328170529,147.237
1362328230529,147.358
1362328290529,147.615
1362328350529,147.691
1362328410529,147.454
1362328470529,147.747
1362328530529,147.781
1362328590529,147.756
1362328650529,147.695
1362328710529,147.878
1362328770529,147.374
1362328830529,147.445
1362328890529,147.687
1362328950529,147.609
1362329010529,147.719
1362329070529,147.576
1362329130529,147.574
1362329190529,147.735
1362329250529,147.692
1362329310529,147.715
1362329370529,147.657
1362329430529,147.828
1362329490529,147.661
1362329550529,147.840
1362329610529,147.734
1362329670529,147.958
1362329730529,147.919
1362329790529,147.755
1362329850529,147.792
1362329910529,148.068
1362329970529,147.828
1362330030542,147.868
1362330090542,148.026
1362330150542,147.793
1362330210542,147.952
1362330270542,147.897
1362330330542,147.883
1362330390542,148.097
1362330450542,148.089
1362330510542,147.861
1362330570542,147.926
1362330630542,147.992
1362330690542,147.886
1362330750542,147.532
1362330810542,147.814
1362330870542,147.906
1362330930542,147.678
1362330990542,147.615
1362331050542,147.886
1362331110542,147.821
1362331170542,147.839
1362331230542,147.749
1362331290542,147.905
1362331350542,147.349
1362331410542,147.854
1362331470542,147.901
1362331530542,147.630
1362331590542,147.369
1362331650542,147.769
1362331710542,147.574
1362331770542,147.848
1362331830542,147.716
1362331890542,147.675
1362331950542,147.658
1362332010542,147.875
1362332070542,147.786
1362332130542,147.470
1362332190542,147.816
1362332250542,147.530
1362332310542,147.636
1362332370542,147.414
1362332430542,147.712
1362332490542,147.727
1362332550542,147.580
1362332610542,147.570
1362332670542,147.560
1362332730542,147.630
1362332790542,147.725
1362332850542,147.739
1362332910542,147.643
1362332970542,147.623
1362333030542,147.759
1362333090542,148.000
1362333150542,147.760
1362333210542,147.697
1362333270542,147.682
1362333330542,147.282
1362333390542,147.893
1362333450542,147.614
1362333510542,147.552
1362333570542,147.589
1362333630555,147.239
1362333690555,147.912
1362333750555,147.604
1362333810555,147.728
1362333870555,147.364
1362333930555,147.447
1362333990555,147.716
1362334050555,147.797
1362334110555,148.039
1362334170555,147.698
1362334230555,147.925
1362334290555,147.718
1362334350555,147.531
1362334410555,147.712
1362334470555,147.817
1362334530555,147.531
1362334590555,147.808
1362334650555,147.597
1362334710555,147.461
1362334770555,147.743
1362334830555,147.694
1362334890555,147.738
1362334950555,147.749
1362335010555,147.525
1362335070555,147.443
1362335130555,147.579
1362335190555,147.457
1362335250555,147.493
1362335310555,147.562
1362335370555,147.302
1362335430555,147.741
1362335490555,148.086
1362335550555,147.619
1362335610555,147.846
1362335670555,147.685
1362335730555,147.855
1362335790555,147.633
1362335850555,147.975
1362335910555,147.737
1362335970555,147.939
1362336030555,148.108
1362336090555,147.888
1362336150555,147.979
1362336210555,148.351
1362336270555,148.050
1362336330555,147.800
1362336390555,148.254
1362336450555,147.908
1362336510555,147.754
1362336570555,147.838
1362336630555,148.050
1362336690555,147.735
1362336750555,147.747
1362336810555,148.033
1362336870555,148.078
1362336930555,148.435
1362336990555,148.204
1362337050555,148.359
1362337110555,148.319
1362337170555,147.964
1362337230568,148.162
1362337290568,148.085
1362337350568,148.164
1362337410568,148.117
1362337470568,148.031
1362337530568,148.362
1362337590568,148.234
1362337650568,148.389
1362337710568,148.230
1362337770568,148.229
1362337830568,148.411
1362337890568,148.254
1362337950568,147.878
1362338010568,148.421
1362338070568,147.976
1362338130568,148.132
1362338190568,148.238
1362338250568,148.078
1362338310568,148.353
1362338370568,147.999
1362338430568,148.187
1362338490568,147.741
1362338550568,147.882
1362338610568,148.249
1362338670568,148.097
1362338730568,148.439
1362338790568,148.052
1362338850568,147.984
1362338910568,147.980
1362338970568,148.015
1362339030568,148.079
1362339090568,148.131
1362339150568,147.958
1362339210568,148.025
1362339270568,147.784
1362339330568,148.258
1362339390568,147.757
1362339450568,148.084
1362339510568,147.755
1362339570568,147.936
1362339630568,147.745
1362339690568,147.821
1362339750568,147.936
1362339810568,147.556
1362339870568,147.905
1362339930568,147.600
1362339990568,147.836
1362340050568,147.744
1362340110568,147.882
1362340170568,147.526
1362340230568,148.000
1362340290568,147.755
1362340350568,147.774
1362340410568,147.851
1362340470568,147.842
1362340530568,147.919
1362340590568,147.954
1362340650568,148.007
1362340710568,147.820
1362340770568,147.595
1362340830580,147.953
1362340890580,147.951
1362340950580,147.610
1362341010580,147.624
1362341070580,147.662
1362341130580,147.608
1362341190580,147.671
1362341250580,147.951
1362341310580,147.709
1362341370580,147.662
1362341430580,147.884
1362341490580,147.801
1362341550580,147.514
1362341610580,147.665
1362341670580,147.582
1362341730580,147.716
1362341790580,147.641
1362341850580,147.711
1362341910580,147.589
1362341970580,147.539
1362342030580,147.772
1362342090580,147.405
1362342150580,147.787
1362342210580,147.398
1362342270580,147.702
1362342330580,147.543
1362342390580,147.689
1362342450580,147.699
1362342510580,147.873
1362342570580,147.340
1362342630580,147.596
1362342690580,147.693
1362342750580,147.585
1362342810580,147.854
1362342870580,147.581
1362342930580,147.692
1362342990580,147.684
1362343050580,147.442
1362343110580,147.768
1362343170580,147.896
1362343230580,147.571
1362343290580,147.550
1362343350580,147.577
1362343410580,147.741
1362343470580,147.480
1362343530580,147.500
1362343590580,147.735
1362343650580,147.846
1362343710580,148.191
1362343770580,147.721
1362343830580,147.565
1362343890580,147.671
1362343950580,147.932
1362344010580,147.689
1362344070580,148.184
1362344130580,148.076
1362344190580,147.713
1362344250580,147.924
1362344310580,147.908
1362344370580,147.787
1362344430593,147.655
1362344490593,147.846
1362344550593,147.621
1362344610593,147.826
1362344670593,147.867
1362344730593,147.904
1362344790593,147.895
1362344850593,147.683
1362344910593,147.662
1362344970593,147.622
1362345030593,147.743
1362345090593,147.826
1362345150593,147.848
1362345210593,147.580
1362345270593,147.878
1362345330593,147.629
1362345390593,147.771
1362345450593,147.659
1362345510593,148.049
1362345570593,148.119
1362345630593,147.742
1362345690593,147.784